Date String (YYYY-MM-DD hh:mm:ss) UTC,Instrument flags,Ambient pressure (hPa),Sample flow (lpm),Bypass flow (lpm),Sample temperature (°C),Ambient temperature (°C),ASC tube jacket temperature (°C),LED temperature (°C),Box temperature (°C),Sample RH (%),Span deviation,Mass concentration (μg/m³),Mass concentration (μg/m³),Mass concentration (μg/m³)
DateTimeUTC,F1_M11,P_M11,Q1_M11,Q2_M11,T1_M11,T2_M11,T3_M11,T4_M11,T5_M11,U1_M11,ZSPAN_M11,X0_M11,X2_M11,X1_M11
2021-11-05 09:00:00,,0824.1,4.99,0.00,28.7,27.9,00.0,37.8,30.4,09.4,0000.0,0002.82,0000.94,0000.72
2021-11-05 09:01:00,,0824.0,5.00,0.00,28.7,27.9,00.0,37.8,30.4,09.5,0000.0,0002.80,0000.93,0000.70
2021-11-05 09:02:00,,0824.0,4.99,0.00,28.7,27.8,00.0,37.8,30.4,09.5,0000.0,0002.83,0000.94,0000.70
2021-11-05 09:03:00,,0824.1,5.02,0.00,28.7,27.9,00.0,37.8,30.4,09.4,0000.0,0002.81,0000.93,0000.70
2021-11-05 09:04:00,,0824.1,5.00,0.00,28.7,27.9,00.0,37.8,30.4,09.4,0000.0,0002.80,0000.92,0000.71
2021-11-05 09:05:00,,0824.2,4.99,0.00,28.7,27.9,00.0,37.8,30.4,09.5,0000.0,0002.85,0000.94,0000.71
2021-11-05 09:06:00,,0824.2,5.00,0.00,28.7,28.0,00.0,37.8,30.5,09.5,0000.0,0002.72,0000.94,0000.71
2021-11-05 09:07:00,,0824.2,5.00,0.00,28.7,28.0,00.0,37.8,30.5,09.6,0000.0,0002.05,0000.90,0000.71
2021-11-05 09:08:00,,0824.3,5.01,0.00,28.7,28.0,00.0,37.8,30.6,09.6,0000.0,0002.03,0000.89,0000.70
2021-11-05 09:09:00,,0824.2,5.01,0.00,28.7,28.0,00.0,37.8,30.6,09.6,0000.0,0001.49,0000.88,0000.69
2021-11-05 09:10:00,,0824.2,5.00,0.00,28.8,28.0,00.0,37.8,30.6,09.8,0000.0,0001.25,0000.86,0000.69
2021-11-05 09:11:00,,0824.2,5.00,0.00,28.8,28.0,00.0,37.8,30.6,09.5,0000.0,0001.17,0000.83,0000.69
2021-11-05 09:12:00,,0824.1,5.01,0.00,28.8,28.0,00.0,37.8,30.6,09.5,0000.0,0001.20,0000.84,0000.69
2021-11-05 09:13:00,,0824.1,4.98,0.00,28.8,28.1,00.0,37.8,30.6,09.6,0000.0,0001.27,0000.87,0000.69
2021-11-05 09:14:00,,0824.2,5.00,0.00,28.8,28.1,00.0,37.8,30.6,09.7,0000.0,0001.35,0000.90,0000.69
2021-11-05 09:15:00,,0824.2,5.00,0.00,28.8,28.1,00.0,37.8,30.6,09.7,0000.0,0001.38,0000.91,0000.69
2021-11-05 09:16:00,,0824.1,5.00,0.00,28.8,28.1,00.0,37.8,30.6,09.6,0000.0,0001.45,0000.91,0000.68
2021-11-05 09:17:00,,0824.1,4.98,0.00,28.9,28.1,00.0,37.8,30.6,09.6,0000.0,0001.54,0000.92,0000.68
2021-11-05 09:18:00,,0824.1,5.00,0.00,28.8,28.1,00.0,37.9,30.7,09.5,0000.0,0001.57,0000.92,0000.67
2021-11-05 09:19:00,,0824.0,5.00,0.00,28.9,28.1,00.0,37.9,30.6,09.6,0000.0,0002.20,0000.91,0000.66
2021-11-05 09:20:00,,0823.9,4.99,0.00,28.8,28.1,00.0,37.9,30.6,09.5,0000.0,0002.47,0000.94,0000.67
2021-11-05 09:21:00,,0824.0,5.01,0.00,28.8,28.0,00.0,37.9,30.6,09.5,0000.0,0002.42,0000.92,0000.67
2021-11-05 09:22:00,,0824.0,5.01,0.00,28.8,28.0,00.0,37.9,30.6,09.5,0000.0,0002.42,0000.91,0000.66
2021-11-05 09:23:00,,0823.9,4.99,0.00,28.8,28.0,00.0,37.9,30.6,09.4,0000.0,0002.52,0000.94,0000.67
2021-11-05 09:24:00,,0823.8,4.99,0.00,28.8,27.9,00.0,37.9,30.5,09.2,0000.0,0003.01,0000.96,0000.66
2021-11-05 09:25:00,,0823.7,5.00,0.00,28.8,27.9,00.0,37.9,30.5,09.2,0000.0,0003.43,0000.95,0000.66
2021-11-05 09:26:00,,0823.7,5.00,0.00,28.8,27.9,00.0,37.8,30.5,09.4,0000.0,0003.76,0000.95,0000.65
2021-11-05 09:27:00,,0823.7,5.01,0.00,28.7,27.8,00.0,37.8,30.4,09.4,0000.0,0003.81,0000.92,0000.64
2021-11-05 09:28:00,,0823.7,5.00,0.00,28.7,27.8,00.0,37.8,30.5,09.3,0000.0,0003.72,0000.91,0000.64
2021-11-05 09:29:00,,0823.6,5.00,0.00,28.7,27.8,00.0,37.8,30.5,09.2,0000.0,0003.74,0000.91,0000.63
2021-11-05 09:30:00,,0823.7,4.99,0.00,28.7,27.8,00.0,37.8,30.5,09.2,0000.0,0003.51,0000.95,0000.64
2021-11-05 09:31:00,,0823.6,5.00,0.00,28.7,27.8,00.0,37.8,30.5,09.1,0000.0,0003.00,0000.93,0000.63
2021-11-05 09:32:00,,0823.6,5.00,0.00,28.7,27.8,00.0,37.8,30.5,09.0,0000.0,0003.03,0000.93,0000.62
2021-11-05 09:33:00,,0823.6,5.01,0.00,28.7,27.7,00.0,37.8,30.5,08.9,0000.0,0003.12,0000.97,0000.62
2021-11-05 09:34:00,,0823.6,5.01,0.00,28.7,27.7,00.0,37.8,30.5,08.9,0000.0,0003.12,0000.98,0000.62
2021-11-05 09:35:00,,0823.7,4.99,0.00,28.7,27.7,00.0,37.8,30.5,09.1,0000.0,0003.20,0000.95,0000.61
2021-11-05 09:36:00,,0823.6,5.01,0.00,28.7,27.7,00.0,37.8,30.5,09.2,0000.0,0003.43,0000.93,0000.62
2021-11-05 09:37:00,,0823.6,5.00,0.00,28.7,27.7,00.0,37.8,30.5,09.2,0000.0,0003.41,0000.95,0000.62
2021-11-05 09:38:00,,0823.6,4.99,0.00,28.7,27.7,00.0,37.8,30.4,09.0,0000.0,0003.55,0001.01,0000.62
2021-11-05 09:39:00,,0823.7,5.00,0.00,28.7,27.7,00.0,37.8,30.5,09.0,0000.0,0003.68,0001.03,0000.62
2021-11-05 09:40:00,,0823.7,5.00,0.00,28.7,27.7,00.0,37.8,30.5,09.2,0000.0,0003.89,0001.07,0000.62
2021-11-05 09:41:00,,0823.7,5.00,0.00,28.7,27.7,00.0,37.8,30.5,09.2,0000.0,0004.34,0001.07,0000.62
2021-11-05 09:42:00,,0823.7,5.00,0.00,28.7,27.7,00.0,37.8,30.5,09.1,0000.0,0004.56,0001.08,0000.62
2021-11-05 09:43:00,,0823.7,4.99,0.00,28.7,27.7,00.0,37.8,30.5,09.1,0000.0,0004.61,0001.10,0000.63
2021-11-05 09:44:00,,0823.6,5.01,0.00,28.7,27.6,00.0,37.8,30.4,09.1,0000.0,0004.56,0001.08,0000.63
2021-11-05 09:45:00,,0823.6,4.99,0.00,28.7,27.6,00.0,37.8,30.4,09.2,0000.0,0004.61,0001.10,0000.64
2021-11-05 09:46:00,,0823.7,5.00,0.00,28.7,27.6,00.0,37.7,30.4,09.1,0000.0,0005.49,0001.14,0000.65
2021-11-05 09:47:00,,0823.7,5.00,0.00,28.7,27.6,00.0,37.7,30.4,09.1,0000.0,0005.39,0001.16,0000.65
2021-11-05 09:48:00,,0823.6,5.00,0.00,28.7,27.6,00.0,37.7,30.5,09.2,0000.0,0005.21,0001.15,0000.65
2021-11-05 09:49:00,,0823.7,5.00,0.00,28.7,27.6,00.0,37.7,30.4,09.2,0000.0,0004.96,0001.13,0000.65
2021-11-05 09:50:00,,0823.7,4.99,0.00,28.7,27.6,00.0,37.7,30.4,09.2,0000.0,0004.98,0001.15,0000.66
2021-11-05 09:51:00,,0823.7,5.00,0.00,28.7,27.6,00.0,37.7,30.4,09.4,0000.0,0005.30,0001.10,0000.66
2021-11-05 09:52:00,,0823.8,5.00,0.00,28.6,27.6,00.0,37.7,30.4,09.4,0000.0,0005.01,0001.10,0000.67
2021-11-05 09:53:00,,0823.8,4.99,0.00,28.6,27.6,00.0,37.7,30.4,09.4,0000.0,0004.86,0001.14,0000.68
2021-11-05 09:54:00,,0823.9,5.01,0.00,28.6,27.6,00.0,37.7,30.3,09.4,0000.0,0004.78,0001.12,0000.68
2021-11-05 09:55:00,,0823.9,5.00,0.00,28.6,27.6,00.0,37.7,30.3,09.5,0000.0,0004.76,0001.10,0000.69
2021-11-05 09:56:00,,0823.8,5.00,0.00,28.6,27.6,00.0,37.7,30.3,09.3,0000.0,0004.70,0001.09,0000.70
2021-11-05 09:57:00,,0823.8,4.99,0.00,28.6,27.5,00.0,37.7,30.3,09.4,0000.0,0003.67,0001.06,0000.70
2021-11-05 09:58:00,,0823.8,5.01,0.00,28.6,27.5,00.0,37.7,30.3,09.4,0000.0,0002.76,0001.03,0000.71
2021-11-05 09:59:00,,0823.9,4.99,0.00,28.6,27.5,00.0,37.7,30.3,09.3,0000.0,0002.80,0001.05,0000.71
